Regional Weather Roundup
Issued by NWS Portland, ME

Home | Current Version | Previous Version | Text Only | Print | Product List | Glossary On
Versions: 1 2 3 4 5 6 7 8 9 10 11 12 13 14 15 16 17 18 19 20 21 22 23 24 25 26 27 28 29 30 31 32 33 34 35 36 37 38 39 40 41 42 43 44 45 46 47 48 49 50
000
ASUS41 KGYX 250110
RWRGYX
WEATHER ROUNDUP FOR MAINE AND NEW HAMPSHIRE
NATIONAL WEATHER SERVICE GRAY ME
900 PM EDT FRI MAR 24 2017

MEZ002-005-006-010-012-015-018-020-021-024-026-027-029-250200-
MAINE

CITY           SKY/WX    TMP DP  RH WIND       PRES   REMARKS
PORTLAND       LGT RAIN  34  33  96 CALM      30.07S FOG
SANFORD        CLOUDY    33  31  92 CALM      30.07S FOG
BAR HARBOR     LGT RAIN  33  33 100 S9        30.09F
WISCASSET      CLOUDY    34  33  96 CALM      30.08F
ROCKLAND       LGT RAIN  36  35  96 SW8       30.07S
FRYEBURG       CLOUDY    31  29  92 CALM      30.05S
LEWISTONAUBURN MIX PCPN  33  31  92 S3        30.06S
AUGUSTA        LGT SNOW  32  30  92 CALM      30.06R FOG
WATERVILLE     LGT SNOW  32  30  93 CALM      30.02F FOG
BANGOR         LGT SNOW  32  32 100 S5        30.06F FOG
GREENVILLE       N/A     25  25 100 CALM      29.97S
MILLINOCKET    LGT SNOW  28  28 100 CALM      30.06F FOG
HOULTON        CLOUDY    29  26  89 CALM      30.04F
PRESQUE ISLE   CLOUDY    29  24  82 S5        30.04S
FRENCHVILLE    CLOUDY    26  20  77 S7        29.97F
CARIBOU        FLURRIES  28  23  81 S7        30.01F
$$

NHZ002-005-008-009-011-012-014-250200-
NEW HAMPSHIRE

CITY           SKY/WX    TMP DP  RH WIND       PRES   REMARKS
PORTSMOUTH     CLOUDY    34  33  96 CALM      30.06R FOG
ROCHESTER      CLOUDY    33  31  92 CALM      30.05S FOG
NASHUA         CLOUDY    35  35 100 CALM      30.06S FOG
MANCHESTER     CLOUDY    35  32  88 CALM      30.05R
CONCORD        CLOUDY    33  31  92 CALM      30.06S FOG
LACONIA        CLOUDY    31  30  96 CALM      30.06S FOG
PLYMOUTH       MIX PCPN  30  29  97 CALM      30.07R
BERLIN         LGT SNOW  29  26  89 CALM      30.01R VSB 1
WHITEFIELD     LGT SNOW  30  27  88 CALM      30.02S FOG
JAFFREY        CLOUDY    39  30  70 SW3       30.03S
KEENE          CLOUDY    35  32  88 CALM      30.05S
LEBANON        FOG       33  32  96 CALM      30.05R VSB 1
MT WASHINGTON  SNOWSHWR  19  19 100 W56         N/A  VSB 0   WCI  -5
$$

VTZ005-007-008-250200-
VERMONT

CITY           SKY/WX    TMP DP  RH WIND       PRES   REMARKS
ST JOHNSBURY     N/A     30  29  96 MISG      30.02S
MONTPELIER     FRZ RAIN  30  30 100 CALM      30.03F FOG
BURLINGTON     FLURRIES  35  33  92 SW7       30.05R
$$

MAZ007-012-024-CTZ003-RIZ002-NYZ038-NYZ072-250200-
SOUTHERN NEW ENGLAND AND NY

CITY           SKY/WX    TMP DP  RH WIND       PRES   REMARKS
BOSTON         CLOUDY    44  29  55 SW13      30.07F
WORCESTER      CLOUDY    40  28  62 SW18G26   30.03F
NANTUCKET      CLOUDY    43  37  79 SW18      30.14S
PROVIDENCE     CLOUDY    46  29  51 SW17G23   30.12R
HARTFORD       MOCLDY    43  30  60 S9        30.10R
ALBANY         CLOUDY    42  33  70 S7        30.06R
NEW YORK CITY  MOCLDY    57  34  41 SW10      30.14R
$$

ANZ081-ANZ082-ANZ150-NHZ014-MEZ023>029-250200-
COASTAL MARINE OBSERVATIONS

STATION/POSITION TIME  TEMP    WIND        PRES    WAVE
                       AIR SEA DIR/SP/G            HT/PER
                 (UTC) (F)     (DEG/KT/KT) (MB)    (FT/S)
MOUNT DESERT ROC 0100   37                 1018.8F
MATINICUS ROCK   0000   38     210/ 23/ 24 1018.4F
ISLE OF SHOALS   0000   40     180/  9/ 10 1017.9F
JEFFREYS LEDGE   0036      40                N/A     5/ 6
CASHES LEDGE BUO 2350   39 39              1018.2    8/ 7
GEORGES BANK BUO 2350   43 40              1025.1    4/ 6
$$

.............KEY..............
   WCI - WIND CHILL
   TC  - TEMPERATURE IN CELSIUS
   VSB - VISIBILITY IN MILES
   HX  - HEAT INDEX
   FAIR- INDICATES FEW OR NO CLOUDS BELOW 12,000 FT, WITH NO
         SIGNIFICANT WEATHER AND/OR OBSTRUCTIONS TO VISIBILITY.






USA.gov is the U.S. government's official web portal to all federal, state and local government web resources and services.